[[{"header":{"parameterUnit":"m.s-1","parameterCategory":1,"la1":30.2991,"la2":30.254,"lo1":-89.0895,"lo2":-89.0444,"dy":0.0017,"dx":0.0017,"nx":28,"ny":28,"refTime":"2023-08-21T09:00:00:Z","depth":0,"parameterNumber":2,"parameterNumberName":"U-component_of_WINDS"},"data":[0,0,0,0,0,0,0,0,0,0,0,0,0,0,0,0,0,0,0,0,0,0,0,0,0,0,0,0,0,0,0,0,0,0,0,0,0,0,0,0,0,0,0,0,0,0,0,0,0,0,0,0,0,0,0,0,0,0,2.3974,2.3975,0,2.4098,2.4099,2.41,2.4127,2.4126,2.4125,2.4124,2.4248,2.4252,2.4256,0,0,0,0,0,0,0,0,0,0,0,0,0,2.3757,2.376,2.3974,2.3975,2.3977,2.4097,2.4099,2.4101,2.4127,2.4126,2.4125,2.4124,2.4247,2.4252,2.4257,0,0,0,0,0,0,0,0,0,0,0,0,0,2.3863,2.3762,2.3973,2.4005,2.4009,2.4097,2.4099,2.4101,2.4127,2.4126,2.4125,2.4124,2.4245,2.4251,2.4257,2.4322,0,0,2.4276,2.4279,0,0,0,0,0,0,0,0,2.3856,2.387,2.3999,2.4003,2.4007,2.4096,2.4068,2.4175,2.4128,2.4082,2.4124,2.4123,2.4198,2.4208,2.4234,2.4328,2.4333,2.4277,2.428,2.4283,2.4285,0,0,0,0,0,0,0,2.3849,2.3865,2.4023,2.4,2.4006,2.4011,2.4025,2.4088,2.4146,2.4086,2.4088,2.4103,2.42,2.4228,2.4237,2.4335,2.4276,2.4282,2.4286,2.4288,2.4487,2.4488,0,0,0,0,0,0,2.3837,2.3859,2.4019,2.4026,2.3927,2.4016,2.4031,2.4069,2.4146,2.4156,2.4104,2.4104,2.4218,2.423,2.4242,2.4322,2.4283,2.4289,2.4292,2.4485,2.4487,2.4489,0,0,0,0,0,0,2.3832,2.3851,2.4014,2.3943,2.3965,2.4021,2.4063,2.4072,2.41,2.4159,2.4169,2.4122,2.4218,2.4233,2.4302,2.4326,2.4292,2.4297,2.4483,2.4486,2.4488,2.4482,0,0,0,0,0,0,2.3826,2.3849,2.3875,2.3944,2.3968,2.4073,2.4064,2.4075,2.4111,2.4111,2.4179,2.4188,2.4218,2.4292,2.4308,2.4334,2.4302,2.4481,2.4484,2.4487,2.448,2.4484,2.4487,0,0,0,0,0,2.3818,2.3868,2.3876,2.3895,2.4002,2.4074,2.4088,2.4122,2.4112,2.4138,2.4176,2.4186,2.4321,2.4299,2.4317,2.4345,2.448,2.4484,2.4487,2.4479,2.4483,2.4487,0,0,0,0,0,0,2.38,2.3878,2.3888,2.3962,2.4011,2.4078,2.4112,2.4126,2.4178,2.4176,2.4215,2.423,2.4296,2.4328,2.4302,2.4411,2.44,2.4407,2.4388,2.4393,2.4396,2.4386,2.4307,0,0,0,0,0,2.3805,2.3858,2.3923,2.3982,2.4006,2.4055,2.4088,2.4109,2.4162,2.4182,2.4225,2.4275,2.4328,2.4362,2.4415,2.4486,2.45,2.4514,2.4517,2.452,2.4525,2.4563,2.457,2.45,2.45,2.45,0,0,2.3815,2.3864,2.3895,2.398,2.402,2.4073,2.4072,2.4128,2.4167,2.419,2.4258,2.4291,2.4349,2.4418,2.4451,2.4447,2.4547,2.4524,2.4526,2.453,2.4567,2.4574,2.458,2.4503,2.4502,2.4502,0,0,2.386,2.3904,2.3957,2.3998,2.406,2.4092,2.4105,2.417,2.4193,2.4262,2.428,2.4326,2.4418,2.4458,2.449,2.455,2.456,2.4566,2.4583,2.462,2.4625,2.463,2.465,2.4657,2.4572,2.4572,2.4572,0,2.3864,2.3946,2.3982,2.4038,2.4073,2.4098,2.4151,2.4189,2.4264,2.4288,2.4283,2.4398,2.4438,2.4517,2.4531,2.4557,2.4572,2.4558,2.4622,2.4627,2.4632,2.4651,2.4659,2.4572,2.4572,2.4572,2.4572,0,2.3947,2.4003,2.4039,2.4112,2.4152,2.4206,2.4249,2.4285,2.4303,2.4335,2.4404,2.4454,2.4516,2.4537,2.4555,2.4617,2.4613,2.4614,2.4603,2.4638,2.4657,2.4665,2.4572,2.4572,2.4572,2.4572,0,0,2.3984,2.4077,2.4089,2.4122,2.4192,2.4235,2.4289,2.4351,2.438,2.4432,2.4477,2.4554,2.4556,2.4592,2.4615,2.4648,2.469,2.4645,2.4647,2.465,2.476,2.4757,2.4765,2.4698,2.4699,2.4701,2.4754,0,2.4036,2.4135,2.4169,2.4251,2.4302,2.4326,2.4373,2.442,2.4451,2.4498,2.4533,2.4586,2.4585,2.4607,2.464,2.4677,2.4712,2.4674,2.4739,2.474,2.4722,2.4775,2.4772,2.4821,2.4762,2.4763,2.4764,0,2.411,2.4163,2.4249,2.4312,2.4335,2.4377,2.4436,2.4481,2.4534,2.4555,2.4596,2.4616,2.4672,2.4659,2.4736,2.471,2.4739,2.4761,2.4763,2.4769,2.4753,2.478,2.4837,2.4843,2.4776,2.4775,2.4774,0,2.4126,2.4219,2.4282,2.431,2.4385,2.4413,2.4446,2.4499,2.4533,2.4584,2.4607,2.4664,2.4695,2.4738,2.4772,2.476,2.4846,2.4836,2.4863,2.4862,2.4879,2.4877,2.4939,2.49,2.49,2.49,2.4899,0,2.4179,2.4231,2.429,2.4329,2.4386,2.4425,2.4481,2.4515,2.4561,2.4606,2.463,2.4671,2.4716,2.4762,2.479,2.4849,2.4863,2.488,2.4886,2.4877,2.4874,2.4895,2.4891,2.4902,2.4901,2.4901,2.49,0,2.4206,2.4248,2.4318,2.4384,2.4402,2.4441,2.4497,2.4535,2.4567,2.4623,2.4639,2.4689,2.4746,2.4785,2.4857,2.4876,2.4938,2.4945,2.492,2.4923,2.4947,2.4944,2.5023,2.5035,2.4989,2.499,2.499,0,2.4237,2.4277,2.4347,2.4379,2.4412,2.4464,2.4499,2.4538,2.4574,2.4638,2.4668,2.4726,2.4774,2.4862,2.4905,2.496,2.4967,2.4991,2.4975,2.4964,2.4965,2.4962,2.4965,2.4993,2.4993,2.4993,2.4993,0,2.4286,2.4305,2.4356,2.4414,2.4456,2.4503,2.4551,2.4575,2.4623,2.4662,2.472,2.4757,2.4831,2.4887,2.4946,2.4979,2.4993,2.4998,2.5007,2.4997,2.498,2.4988,2.4925,2.4996,2.4996,2.4995,2.4995,2.4995,2.4315,2.4351,2.4406,2.4462,2.4502,2.4545,2.4584,2.4621,2.4671,2.4734,2.4754,2.4814,2.4866,2.4946,2.498,2.5026,2.5024,2.5038,2.5041,2.5043,2.5042,2.4974,2.5037,2.5037,2.5037,2.5037,2.5037,0,2.4364,2.4401,2.4452,2.4517,2.4561,2.4573,2.4626,2.466,2.4713,2.476,2.4808,2.4873,2.4928,2.4975,2.5032,2.506,2.5068,2.5073,2.5071,2.5077,2.5041,2.5026,2.5066,2.5066,2.5066,2.5065,2.5065,2.5065,2.4395,2.4456,2.4481,2.4562,2.4598,2.4658,2.4687,2.4727,2.4764,2.4837,2.4883,2.4914,2.4961,2.5021,2.5071,2.5084,2.5102,2.5106,2.5119,2.5084,2.508,2.5077,2.5064,2.511,2.511,2.5152,2.5153,2.5153]},{"header":{"parameterUnit":"m.s-1","parameterCategory":1,"la1":30.2991,"la2":30.254,"lo1":-89.0895,"lo2":-89.0444,"dy":0.0017,"dx":0.0017,"nx":28,"ny":28,"refTime":"2023-08-21T09:00:00:Z","depth":0,"parameterNumber":3,"parameterNumberName":"V-component_of_WINDS"},"data":[0,0,0,0,0,0,0,0,0,0,0,0,0,0,0,0,0,0,0,0,0,0,0,0,0,0,0,0,0,0,0,0,0,0,0,0,0,0,0,0,0,0,0,0,0,0,0,0,0,0,0,0,0,0,0,0,0,0,1.9354,1.9354,0,1.9307,1.9306,1.9306,1.9244,1.9243,1.9242,1.9241,1.9192,1.9192,1.9191,0,0,0,0,0,0,0,0,0,0,0,0,0,1.9391,1.9391,1.9355,1.9354,1.9353,1.9307,1.9306,1.9306,1.9244,1.9243,1.9241,1.924,1.9192,1.9192,1.9191,0,0,0,0,0,0,0,0,0,0,0,0,0,1.9363,1.9391,1.9355,1.9317,1.9313,1.9307,1.9306,1.9305,1.9244,1.9242,1.9241,1.924,1.9192,1.9192,1.9191,1.9219,0,0,1.919,1.9189,0,0,0,0,0,0,0,0,1.9364,1.9361,1.9323,1.9319,1.9315,1.928,1.9301,1.9276,1.9244,1.927,1.9241,1.9239,1.9222,1.9219,1.9214,1.9216,1.9214,1.919,1.9189,1.9189,1.9189,0,0,0,0,0,0,0,1.9366,1.9363,1.9336,1.9323,1.9318,1.9302,1.9296,1.9296,1.9255,1.9268,1.9263,1.9258,1.922,1.9214,1.9212,1.9214,1.919,1.9189,1.9189,1.9189,1.9234,1.9236,0,0,0,0,0,0,1.9374,1.9365,1.9337,1.9334,1.9336,1.9303,1.9296,1.9293,1.9255,1.9248,1.926,1.9256,1.9216,1.9213,1.921,1.9238,1.9189,1.9189,1.9188,1.9233,1.9235,1.9236,0,0,0,0,0,0,1.9375,1.9372,1.9339,1.9348,1.9343,1.9304,1.93,1.9292,1.9287,1.9249,1.9242,1.9262,1.9215,1.9211,1.9217,1.9236,1.9188,1.9188,1.9231,1.9233,1.9235,1.9296,0,0,0,0,0,0,1.9376,1.9373,1.9383,1.9349,1.9343,1.9347,1.9301,1.9293,1.9286,1.928,1.9249,1.9242,1.9213,1.9218,1.9216,1.9234,1.9187,1.9229,1.9232,1.9235,1.9292,1.93,1.9307,0,0,0,0,0,1.9378,1.9403,1.9384,1.9381,1.9355,1.9348,1.9344,1.931,1.9288,1.9297,1.9273,1.9243,1.9234,1.9219,1.9216,1.9235,1.9228,1.9231,1.9234,1.9289,1.9299,1.9307,0,0,0,0,0,0,1.944,1.9397,1.9376,1.9391,1.9373,1.9338,1.9349,1.9322,1.9311,1.9306,1.9264,1.9258,1.9268,1.9252,1.9236,1.9259,1.9226,1.923,1.9269,1.9278,1.9285,1.9288,1.9187,0,0,0,0,0,1.9456,1.9454,1.9417,1.9433,1.9425,1.9389,1.9384,1.936,1.934,1.9332,1.9309,1.9291,1.9283,1.928,1.9271,1.929,1.9281,1.9301,1.9309,1.9315,1.9318,1.9325,1.9333,1.9248,1.9247,1.9247,0,0,1.9488,1.9464,1.9465,1.9445,1.9428,1.9427,1.9383,1.9384,1.9382,1.9333,1.9336,1.9318,1.9295,1.9307,1.9311,1.9294,1.934,1.9319,1.9325,1.9324,1.9329,1.9338,1.9345,1.925,1.9249,1.9249,0,0,1.9545,1.9527,1.9538,1.9522,1.9498,1.9473,1.9476,1.9444,1.943,1.9433,1.9395,1.9392,1.9382,1.9366,1.9357,1.9407,1.9379,1.9406,1.9444,1.9452,1.9459,1.9464,1.9481,1.9488,1.9409,1.9409,1.9409,0,1.9587,1.9584,1.9547,1.955,1.9541,1.9496,1.9506,1.9493,1.9467,1.9462,1.9444,1.9428,1.9409,1.9416,1.9428,1.9423,1.9424,1.9409,1.9461,1.9466,1.9471,1.9486,1.9493,1.9412,1.9412,1.9412,1.9411,0,1.9637,1.9635,1.9647,1.9623,1.9615,1.9622,1.9586,1.9583,1.9559,1.9536,1.9539,1.9515,1.95,1.95,1.9477,1.9503,1.9493,1.9468,1.9435,1.9483,1.9497,1.9503,1.9417,1.9416,1.9415,1.9414,0,0,1.9732,1.9687,1.9692,1.968,1.9649,1.9647,1.9651,1.9636,1.9634,1.9618,1.962,1.9611,1.9587,1.9577,1.9551,1.9558,1.9597,1.9531,1.953,1.9544,1.9624,1.9642,1.965,1.9578,1.9579,1.958,1.9625,0,1.9783,1.9787,1.9754,1.9767,1.9765,1.9721,1.9725,1.9706,1.9685,1.9679,1.9655,1.9649,1.9619,1.9612,1.9617,1.9592,1.9613,1.9588,1.9579,1.9579,1.9585,1.9657,1.9677,1.9721,1.9631,1.9632,1.9632,0,1.9842,1.9829,1.9842,1.981,1.9807,1.9811,1.9794,1.9789,1.9767,1.9751,1.9739,1.9709,1.971,1.9679,1.9679,1.9663,1.9657,1.9644,1.9645,1.9642,1.9608,1.9656,1.9734,1.9741,1.9641,1.964,1.9639,0,1.9909,1.9894,1.99,1.9891,1.9854,1.9857,1.9842,1.9818,1.9811,1.9796,1.9791,1.9777,1.9769,1.9758,1.9725,1.9705,1.9728,1.9695,1.9714,1.9715,1.9721,1.9721,1.9799,1.9718,1.9718,1.9718,1.9718,0,1.9969,1.9979,1.9929,1.9933,1.9942,1.9903,1.9913,1.9893,1.9872,1.987,1.9832,1.9831,1.9788,1.9782,1.9756,1.9759,1.9756,1.9742,1.9735,1.9745,1.9747,1.9741,1.9736,1.972,1.972,1.9719,1.9719,0,2.0045,2.0013,2.0016,1.998,1.9971,1.9979,1.9948,1.9949,1.9925,1.9924,1.9921,1.9883,1.9874,1.984,1.9823,1.9805,1.9816,1.9803,1.9824,1.9819,1.984,1.9839,1.9916,1.9924,1.984,1.9841,1.9842,0,2.0085,2.0091,2.0056,2.0052,2.0038,2.0033,2.0025,1.9987,1.998,1.9954,1.9959,1.9946,1.9934,1.9922,1.9892,1.9878,1.9864,1.9892,1.9861,1.9871,1.9863,1.9863,1.9863,1.9899,1.99,1.9901,1.9901,0,2.0159,2.0142,2.0133,2.0118,2.011,2.0096,2.008,2.0079,2.0036,2.003,2.002,2.0011,1.9993,1.9981,1.9962,1.9945,1.9916,1.9911,1.9915,1.9925,1.9936,1.9929,1.9841,1.9909,1.9909,1.9908,1.9908,1.9907,2.0217,2.022,2.0196,2.0186,2.017,2.0156,2.0155,2.013,2.0121,2.0104,2.0081,2.0074,2.005,2.0021,2.0007,2.0,1.9984,1.9989,1.9991,1.9992,1.9997,1.9938,1.9996,1.9996,1.9996,1.9996,1.9995,0,2.0288,2.027,2.0262,2.024,2.0233,2.0206,2.0186,2.0181,2.0175,2.0156,2.0144,2.0132,2.012,2.0089,2.0074,2.0074,2.006,2.0071,2.0071,2.0067,2.0013,2.0011,2.0083,2.0083,2.0083,2.0083,2.0083,2.0083,2.0324,2.0328,2.0308,2.0303,2.0284,2.0277,2.0268,2.0254,2.0237,2.0226,2.0215,2.0196,2.0171,2.0153,2.014,2.0132,2.0127,2.0143,2.0129,2.0079,2.0071,2.0063,2.0061,2.0142,2.0142,2.0184,2.0184,2.0185]}]]